| time (UTC) | temp F | wind direction | speed MPH | gust MPH | rain 1hr in | rain 24hr in | rain mn in | humidity % | barometer mb |
| 20260906224548 | 70 | 236 | 7.0 | 11.0 | 0.00 | 0.00 | 0.00 | 66 | 1012.4 |
| 20260906223047 | 69 | 191 | 7.0 | 14.0 | 0.00 | 0.00 | 0.00 | 67 | 1012.6 |
| 20260906221543 | 70 | 265 | 7.0 | 13.0 | 0.00 | 0.00 | 0.00 | 64 | 1012.7 |
| 20260906220039 | 70 | 258 | 5.0 | 11.0 | 0.00 | 0.00 | 0.00 | 64 | 1012.8 |
| 20260906214538 | 70 | 234 | 7.0 | 13.0 | 0.00 | 0.00 | 0.00 | 66 | 1012.9 |
| 20260906213034 | 69 | 217 | 7.0 | 13.0 | 0.00 | 0.00 | 0.00 | 66 | 1013.1 |
| 20260906211530 | 69 | 298 | 9.0 | 16.0 | 0.00 | 0.00 | 0.00 | 63 | 1013.2 |
| 20260906210028 | 68 | 239 | 6.0 | 15.0 | 0.00 | 0.00 | 0.00 | 65 | 1013.3 |
| 20260906204526 | 69 | 196 | 7.0 | 12.0 | 0.00 | 0.00 | 0.00 | 65 | 1013.4 |
| 20260906203024 | 69 | 200 | 7.0 | 14.0 | 0.00 | 0.00 | 0.00 | 65 | 1013.5 |
| 20260906201521 | 69 | 198 | 5.0 | 13.0 | 0.00 | 0.00 | 0.00 | 64 | 1013.7 |
| 20260906200017 | 69 | 229 | 7.0 | 13.0 | 0.00 | 0.00 | 0.00 | 63 | 1013.9 |
| 20260906194520 | 70 | 234 | 6.0 | 9.0 | 0.00 | 0.00 | 0.00 | 63 | 1014.0 |
| 20260906193011 | 72 | 222 | 4.0 | 7.0 | 0.00 | 0.00 | 0.00 | 59 | 1014.0 |
| 20260906191506 | 74 | 239 | 0.0 | 2.0 | 0.00 | 0.00 | 0.00 | 57 | 1014.2 |
| 20260906190002 | 74 | 68 | 0.0 | 2.0 | 0.00 | 0.00 | 0.00 | 56 | 1014.4 |
| 20260906184625 | 73 | 57 | 0.0 | 2.0 | 0.00 | 0.00 | 0.00 | 59 | 1014.6 |
| 20260906183053 | 72 | 97 | 0.0 | 2.0 | 0.00 | 0.00 | 0.00 | 64 | 1014.7 |
| 20260906181551 | 71 | 97 | 0.0 | 4.0 | 0.00 | 0.00 | 0.00 | 63 | 1014.9 |
| 20260906180043 | 70 | 119 | 0.0 | 3.0 | 0.00 | 0.00 | 0.00 | 62 | 1015.2 |
| 20260906174544 | 70 | 85 | 0.0 | 2.0 | 0.00 | 0.00 | 0.00 | 63 | 1015.4 |
| 20260906173038 | 70 | 126 | 0.0 | 1.0 | 0.00 | 0.00 | 0.00 | 64 | 1015.6 |
| 20260906171536 | 68 | 172 | 0.0 | 2.0 | 0.00 | 0.00 | 0.00 | 68 | 1016.0 |
| 20260906170027 | 66 | 223 | 0.0 | 2.0 | 0.00 | 0.00 | 0.00 | 70 | 1016.3 |
| 20260906164533 | 65 | 98 | 0.0 | 2.0 | 0.00 | 0.00 | 0.00 | 72 | 1016.5 |
| 20260906163019 | 63 | 87 | 0.0 | 2.0 | 0.00 | 0.00 | 0.00 | 75 | 1016.5 |
| 20260906161512 | 62 | 83 | 0.0 | 2.0 | 0.00 | 0.00 | 0.00 | 76 | 1016.7 |
| 20260906160009 | 62 | 75 | 0.0 | 2.0 | 0.00 | 0.00 | 0.00 | 80 | 1016.8 |
| 20260906154505 | 60 | 153 | 0.0 | 1.0 | 0.00 | 0.00 | 0.00 | 82 | 1016.9 |
| 20260906153100 | 58 | 82 | 0.0 | 1.0 | 0.00 | 0.00 | 0.00 | 84 | 1017.0 |
| 20260906151554 | 54 | 70 | 0.0 | 2.0 | 0.00 | 0.00 | 0.00 | 92 | 1017.2 |
| 20260906150054 | 51 | 161 | 0.0 | 0.0 | 0.00 | 0.00 | 0.00 | 97 | 1017.3 |
| 20260906144553 | 49 | 163 | 0.0 | 0.0 | 0.00 | 0.00 | 0.00 | 96 | 1017.2 |
| 20260906143051 | 49 | 163 | 0.0 | 0.0 | 0.00 | 0.00 | 0.00 | 96 | 1017.2 |
| 20260906141550 | 49 | 163 | 0.0 | 0.0 | 0.00 | 0.00 | 0.00 | 96 | 1017.1 |
| 20260906140051 | 49 | 219 | 0.0 | 1.0 | 0.00 | 0.00 | 0.00 | 96 | 1016.9 |
| 20260906134547 | 49 | 220 | 0.0 | 1.0 | 0.00 | 0.00 | 0.00 | 96 | 1017.0 |
| 20260906133052 | 49 | 220 | 0.0 | 1.0 | 0.00 | 0.00 | 0.00 | 95 | 1016.9 |
| 20260906131545 | 49 | 235 | 0.0 | 1.0 | 0.00 | 0.00 | 0.00 | 96 | 1016.8 |
| 20260906130047 | 49 | 235 | 0.0 | 0.0 | 0.00 | 0.00 | 0.00 | 95 | 1016.8 |
| 20260906124543 | 49 | 235 | 0.0 | 1.0 | 0.00 | 0.00 | 0.00 | 95 | 1016.6 |
| 20260906123040 | 49 | 235 | 0.0 | 1.0 | 0.00 | 0.00 | 0.00 | 95 | 1016.7 |
| 20260906121536 | 49 | 235 | 0.0 | 0.0 | 0.00 | 0.00 | 0.00 | 95 | 1016.7 |
| 20260906120033 | 50 | 235 | 0.0 | 0.0 | 0.00 | 0.00 | 0.00 | 95 | 1016.8 |
| 20260906114532 | 50 | 235 | 0.0 | 1.0 | 0.00 | 0.00 | 0.00 | 95 | 1016.9 |
| 20260906113030 | 50 | 235 | 0.0 | 0.0 | 0.00 | 0.00 | 0.00 | 95 | 1016.8 |
| 20260906111527 | 50 | 235 | 0.0 | 0.0 | 0.00 | 0.00 | 0.00 | 94 | 1016.9 |
| 20260906110025 | 51 | 235 | 0.0 | 0.0 | 0.00 | 0.00 | 0.00 | 94 | 1017.0 |
| 20260906104522 | 51 | 235 | 0.0 | 1.0 | 0.00 | 0.01 | 0.00 | 94 | 1017.1 |
| 20260906103039 | 51 | 235 | 0.0 | 1.0 | 0.00 | 0.01 | 0.00 | 93 | 1017.2 |
| 20260906101516 | 51 | 235 | 0.0 | 1.0 | 0.00 | 0.01 | 0.00 | 93 | 1017.2 |
| 20260906100024 | 52 | 234 | 0.0 | 0.0 | 0.00 | 0.01 | 0.00 | 93 | 1017.3 |
| 20260906094511 | 52 | 120 | 0.0 | 0.0 | 0.00 | 0.02 | 0.00 | 93 | 1017.3 |
| 20260906093010 | 52 | 120 | 0.0 | 1.0 | 0.00 | 0.02 | 0.00 | 94 | 1017.3 |
| 20260906091506 | 52 | 135 | 0.0 | 1.0 | 0.00 | 0.02 | 0.00 | 94 | 1017.3 |
| 20260906090003 | 52 | 137 | 0.0 | 0.0 | 0.00 | 0.02 | 0.00 | 93 | 1017.3 |
| 20260906084602 | 52 | 138 | 0.0 | 1.0 | 0.00 | 0.02 | 0.00 | 93 | 1017.5 |
| 20260906083100 | 52 | 130 | 0.0 | 0.0 | 0.00 | 0.02 | 0.00 | 93 | 1017.6 |
| 20260906081552 | 53 | 130 | 0.0 | 1.0 | 0.00 | 0.02 | 0.00 | 92 | 1017.6 |
| 20260906080052 | 53 | 132 | 0.0 | 1.0 | 0.00 | 0.02 | 0.00 | 91 | 1017.7 |
| 20260906074548 | 54 | 104 | 0.0 | 1.0 | 0.00 | 0.02 | 0.00 | 91 | 1017.7 |
| 20260906073044 | 54 | 115 | 0.0 | 1.0 | 0.00 | 0.02 | 0.00 | 91 | 1017.5 |
| 20260906071542 | 54 | 113 | 0.0 | 1.0 | 0.00 | 0.02 | 0.00 | 92 | 1017.5 |
| 20260906070039 | 54 | 113 | 0.0 | 0.0 | 0.00 | 0.02 | 0.00 | 92 | 1017.6 |
| 20260906064539 | 54 | 113 | 0.0 | 0.0 | 0.00 | 0.02 | 0.02 | 91 | 1017.6 |
| 20260906063034 | 55 | 113 | 0.0 | 1.0 | 0.00 | 0.02 | 0.02 | 91 | 1017.5 |
| 20260906061533 | 55 | 114 | 0.0 | 0.0 | 0.00 | 0.02 | 0.02 | 91 | 1017.5 |
| 20260906060031 | 55 | 108 | 0.0 | 1.0 | 0.00 | 0.02 | 0.02 | 91 | 1017.5 |
| 20260906054536 | 55 | 224 | 0.0 | 0.0 | 0.00 | 0.02 | 0.02 | 90 | 1017.5 |
| 20260906053027 | 56 | 224 | 0.0 | 0.0 | 0.00 | 0.02 | 0.02 | 91 | 1017.3 |
| 20260906051526 | 56 | 224 | 0.0 | 0.0 | 0.00 | 0.02 | 0.02 | 91 | 1017.3 |
| 20260906050024 | 56 | 224 | 0.0 | 0.0 | 0.00 | 0.02 | 0.02 | 91 | 1017.3 |
| 20260906044522 | 57 | 224 | 0.0 | 0.0 | 0.00 | 0.02 | 0.02 | 90 | 1017.1 |
| 20260906043024 | 57 | 224 | 0.0 | 0.0 | 0.00 | 0.02 | 0.02 | 90 | 1017.0 |
| 20260906041518 | 58 | 225 | 0.0 | 1.0 | 0.00 | 0.02 | 0.02 | 90 | 1017.0 |
| 20260906040019 | 58 | 224 | 0.0 | 0.0 | 0.00 | 0.02 | 0.02 | 90 | 1017.1 |
| 20260906034516 | 58 | 225 | 0.0 | 0.0 | 0.00 | 0.02 | 0.02 | 89 | 1017.0 |
| 20260906033013 | 59 | 225 | 0.0 | 0.0 | 0.00 | 0.02 | 0.02 | 89 | 1016.8 |
| 20260906031512 | 59 | 224 | 0.0 | 0.0 | 0.00 | 0.02 | 0.02 | 87 | 1016.5 |
| 20260906030008 | 60 | 224 | 0.0 | 0.0 | 0.00 | 0.02 | 0.02 | 85 | 1016.3 |
| 20260906024508 | 61 | 224 | 0.0 | 0.0 | 0.00 | 0.02 | 0.02 | 82 | 1016.3 |
| 20260906023006 | 62 | 224 | 0.0 | 2.0 | 0.00 | 0.02 | 0.02 | 81 | 1016.4 |
| 20260906021506 | 63 | 241 | 0.0 | 2.0 | 0.00 | 0.02 | 0.02 | 77 | 1016.2 |
| 20260906020001 | 64 | 233 | 0.0 | 1.0 | 0.00 | 0.02 | 0.02 | 77 | 1016.0 |
| 20260906014607 | 64 | 233 | 0.0 | 2.0 | 0.00 | 0.02 | 0.02 | 75 | 1015.8 |
| 20260906013059 | 65 | 242 | 1.0 | 4.0 | 0.00 | 0.02 | 0.02 | 74 | 1015.5 |
| 20260906011605 | 66 | 232 | 2.0 | 7.0 | 0.00 | 0.02 | 0.02 | 72 | 1015.3 |
| 20260906010054 | 67 | 220 | 1.0 | 5.0 | 0.00 | 0.02 | 0.02 | 68 | 1015.2 |
| 20260906004552 | 68 | 208 | 0.0 | 6.0 | 0.00 | 0.02 | 0.02 | 69 | 1015.2 |
| 20260906003050 | 68 | 223 | 2.0 | 9.0 | 0.00 | 0.02 | 0.02 | 69 | 1015.1 |
| 20260906001549 | 69 | 248 | 2.0 | 6.0 | 0.00 | 0.02 | 0.02 | 66 | 1015.0 |
| 20260906000046 | 68 | 241 | 2.0 | 5.0 | 0.00 | 0.02 | 0.02 | 67 | 1015.1 |
| 20260905234545 | 68 | 229 | 2.0 | 6.0 | 0.00 | 0.02 | 0.02 | 66 | 1015.0 |
| 20260905233044 | 67 | 81 | 0.0 | 5.0 | 0.00 | 0.02 | 0.02 | 68 | 1015.2 |
| 20260905231541 | 69 | 194 | 3.0 | 10.0 | 0.00 | 0.02 | 0.02 | 64 | 1015.2 |
| 20260905230038 | 70 | 257 | 3.0 | 9.0 | 0.00 | 0.02 | 0.02 | 65 | 1015.1 |